Regional Weather Roundup
Issued by NWS Wakefield, VA

Home | Current Version | Previous Version | Graphics & Text | Print | Product List | Glossary On
Versions: 1 2 3 4 5 6 7 8 9 10 11 12 13 14 15 16 17 18 19 20 21 22 23 24 25 26 27 28 29 30 31 32 33 34 35 36 37 38 39 40 41 42 43 44 45 46 47 48 49 50
000
ASUS41 KAKQ 210410
RWRAKQ

REGIONAL WEATHER ROUNDUP
NATIONAL WEATHER SERVICE WAKEFIELD VA
1100 PM EST SAT DEC 20 2014

Note: "fair" indicates few or no clouds below 12,000 feet with no
significant weather and/or obstructions to visibility. * = Denotes
station may not report precipitation (e.g., rain,snow,etc.),
thunder or fog.

VAZ042-051-052>054-056-210500-
NORTHERN VIRGINIA

CITY           SKY/WX    TMP DP  RH WIND       PRES   REMARKS
WASH NATIONAL  MOCLDY    37  20  50 NW3       30.31S
DULLES         CLOUDY    30  25  81 SW3       30.30S
FORT BELVOIR   PTCLDY    30  25  81 CALM      30.31S
QUANTICO       CLOUDY    32  25  75 NW5       30.32S
FREDERICKSBRG* CLOUDY    34  27  76 CALM      30.30S
STAFFORD*      CLOUDY    31  26  80 CALM      30.34S
WARRENTON      CLOUDY    32  32  98 CALM      30.29S
CULPEPER*      CLOUDY    34  28  80 CALM      30.30R
MANASSAS*      CLOUDY    30  28  93 CALM      30.30S
LEESBURG*      CLOUDY    32  28  86 MISG      30.30S
WINCHESTER     CLOUDY    30  23  74 CALM      30.27S
FRONT ROYAL*   CLOUDY    32  23  69 CALM      30.26R
LURAY*         CLOUDY    32  28  86 CALM      30.26R
$$

VAZ048-049-060>072-079>083-210500-
CENTRAL AND SOUTH CENTRAL VIRGINIA

CITY           SKY/WX    TMP DP  RH WIND       PRES   REMARKS
RICHMOND       CLOUDY    36  23  59 CALM      30.30S
CHESTERFIELD*  CLOUDY    36  16  44 CALM      30.31S
PETERSBURG*    CLOUDY    35  31  85 CALM      30.31S
HANOVER        CLOUDY    33  26  75 CALM      30.32R
TAPPAHANNOCK*  CLOUDY    33  26  76 CALM      30.31S
QUINTON*       CLOUDY    34  25  69 CALM      30.30S
CHARLOTTSVILLE CLOUDY    33  25  72 CALM      30.27S
GORDONSVILLE*  CLOUDY    32  27  83 CALM      30.28S
ORANGE*        CLOUDY    34  28  80 CALM      30.30S
LOUISA*        CLOUDY    34  27  75 CALM      30.27S
BUMPASS*       CLOUDY    32  26  76 CALM      30.29S
FARMVILLE*     CLOUDY    37  27  67 CALM      30.27F
CREWE*         CLOUDY    34  27  74 CALM      30.28S
FORT PICKETT*  CLOUDY    34  26  74 CALM      30.29R
CHASE CITY*    CLOUDY    37  35  90 CALM      30.28S
CLARKSVILLE*   CLOUDY    34  32  93 CALM      30.28S
SOUTH HILL*    CLOUDY    31  29  92 CALM      30.34S
LAWRENCEVILLE* CLOUDY    32  30  90 CALM      30.29R
EMPORIA*       CLEAR     32  32 100 CALM      30.32S
$$

VAZ088>098-210500-
SOUTHEAST VIRGINIA

CITY           SKY/WX    TMP DP  RH WIND       PRES   REMARKS
NORFOLK        CLEAR     33  30  88 CALM      30.29F
VIRGINIA BEACH PTCLDY    30  26  85 CALM      30.29S
NORFOLK NAVAL  MOCLDY    36  29  75 CALM      30.31S
WEST POINT*    CLOUDY    36  26  68 CALM      30.33S
SALUDA*        CLOUDY    33  28  81 CALM      30.30S
NEWPORT NEWS   CLEAR     34  27  75 NW3       30.31R
LANGLEY AFB    CLEAR     31  28  90 CALM      30.31S
FORT EUSTIS    CLEAR     32  26  78 CALM      30.29S
WILLIAMSBURG*  CLOUDY    37  30  75 CALM      30.32R
HR EXEC AP*    CLOUDY    28  27  93 CALM      30.32S
FRANKLIN*      CLOUDY    30  30 100 CALM      30.31S
WAKEFIELD      PTCLDY    30  27  88 CALM      30.31R
$$

VAZ020-022-025-037-045-210500-
WEST CENTRAL AND SOUTHWEST VIRGINIA

CITY           SKY/WX    TMP DP  RH WIND       PRES   REMARKS
STAUNTON*      CLOUDY    32  27  80 CALM      30.25S
WAYNESBORO*    CLOUDY    32  25  76 CALM      30.22S
HOT SPRINGS VA CLOUDY    30  30 100 W9        30.10S
LYNCHBURG      CLOUDY    33  28  81 CALM      30.27S
DANVILLE       CLOUDY    38  32  79 CALM      30.28S
SOUTH BOSTON*  CLOUDY    36  32  87 CALM      30.28F
MARTINSVILLE   CLOUDY    37  31  80 CALM      30.28S
ROANOKE        CLOUDY    36  25  64 SE5       30.26S
BLACKSBURG     CLOUDY    34  31  90 CALM      30.23S
DUBLIN*        MIX PCPN  37  35  94 CALM      30.22R
MARION*        RAIN      37  35  94 W5        30.21S
HILLSVILLE*    CLOUDY    34  31  90 CALM      30.19R
RICHLANDS*     CLOUDY    33  31  92 CALM      30.19S
WISE*          CLOUDY    34  30  86 CALM      30.20S
ABINGDON*      CLOUDY    40  38  95 W5        30.20S
$$

MDZ021>025-VAZ099-100-210500-
SOUTHERN MARYLAND AND THE DELMARVA PENINSULA

CITY           SKY/WX    TMP DP  RH WIND       PRES   REMARKS
PATUXENT RIVER CLEAR     27  21  78 W3        30.30S
BAY BRIDGE APT   N/A     34  27  75 CALM      30.31S
LEONARDTOWN    CLEAR     28  23  80 CALM      30.32S
DOVER          CLOUDY    31  28  88 CALM      30.29R
GEORGETOWN     CLOUDY    30  25  81 CALM      30.31R
EASTON         MOCLDY    34  29  81 CALM      30.34S
CAMBRIDGE      PTCLDY    32  28  86 CALM      30.30S
SALISBURY      PTCLDY    30  23  75 CALM      30.30F
OCEAN CITY     CLEAR     25  22  88 NW3       30.30S
WALLOPS ISLAND CLEAR     27  24  89 NW3       30.31S
ACCOMACK*      CLOUDY    28  25  86 CALM      30.30S
$$

NCZ012>017-030>032-210500-
NORTH CENTRAL AND EASTERN NORTH CAROLINA

CITY           SKY/WX    TMP DP  RH WIND       PRES   REMARKS
ROANOKE RAPIDS PTCLDY    32  30  93 CALM      30.29F
RALEIGH        CLOUDY    38  34  85 CALM      30.28S FOG
ELIZABETH CITY CLEAR     39  31  72 N6        30.29F
AHOSKIE*       MOCLDY    33  31  92 CALM      30.30S
EDENTON*         N/A     32  29  91 CALM      30.29S
CURRITUCK*     CLEAR     33  30  87 CALM      30.30F
KILL DEVIL HLS CLEAR     40  33  77 N5        30.26F
MANTEO         CLEAR     39  33  80 N7        30.27F
CAPE HATTERAS  CLEAR     42  37  82 VRB3      30.26F
TARBORO*       NOT AVBL
GOLDSBORO      PTCLDY    37  36  98 CALM      30.27
WASHINGTON     CLOUDY    39  34  81 N3        30.29S
GREENVILLE     CLOUDY    39  36  87 CALM      30.29S
NEW BERN       CLEAR     39  34  82 CALM      30.29S
WILMINGTON     CLOUDY    39  37  92 NE7       30.26F
$$

VAZ048-210500-
ELSEWHERE

CITY           SKY/WX    TMP DP  RH WIND       PRES   REMARKS
HARRISBURG PA  MOCLDY    29  22  75 NW7       30.29F
BALTIMORE      MOCLDY    33  25  72 CALM      30.30R
ANNAPOLIS      CLOUDY    36  25  64 CALM      30.31R
ANDREWS AFB    PTCLDY    29  24  78 CALM      30.29S
PHILADELPHIA   CLOUDY    34  22  61 S3        30.32R
HENDERSON NC   CLOUDY    31  30  95 CALM      30.28S FOG
GREENSBORO     CLOUDY    38  34  85 CALM      30.25R
ROCKY MOUNT    MOCLDY    36  34  92 CALM      30.29S
$$

VAZ100-210500-
MARINE

STATION/POSITION TIME  TEMP    WIND        PRES    WAVE   SWELL
                       AIR SEA DIR/SP/G            HT/PER HT/PER
                 (UTC) (F)     (DEG/KT/KT) (MB)    (FT/S) (FT/S)
CAPE MAY NJ      0400   31 43  100/  2/  3 1026.1R
LEWES DE         0400   33 41  170/  1/  2 1026.1F
15NM E FENWICK I 0400   36 45              1025.7F   1/10
OCEAN-CITY-INLET 0400   33 44  340/  2/  3 1025.7S
WACHAPREAGUE VA  0400   29 41   CALM  /  1 1026.1R
THOMAS POINT MD  0400   36 41  100/  3/  3 1027.3R
GOOSES REEF MD   0400   36     VRB  6/  8  1025.3R
COVE POINT MD    0400   34     300/  3/  4 1025.9F
SOLOMONS ISLAND  0400      43                N/A
BISHOPS HEAD MD  0400   34 36   10/  3/  3 1025.5S
POTOMAC MD       0400   36     360/  6/  8 1025.2R
CAMBRIDGE MD     0400   33 40   CALM  /  2 1026.1R
LEWISETTA VA     0400   35 41  270/  3/  4 1026.0R
RAPPAHANNOCK LGT 0400          320/  5/  6 1026.5R
STINGRAY PT      0400   37     340/  4/  6 1026.5S
YORK RVR RNG VA  0400   38      20/  6/  8 1025.5S
YORKTOWN VA      0400   37 45   10/  6/  7 1025.9S
JAMESTOWN VA     0400   35      60/  2/  4   N/A
DOMINION TERM VA 0400   38      10/  3/  4 1026.1R
KIPTOPEKE VA     0400      49   60/  5/  5   N/A
CHES BAY BRIDGE  0400   39 46   30/  3/  5 1025.4F
CAPE HENRY VA    0400   38      20/  4/  5 1024.5F
CHESAPEAKE LGHT  0300   39      10/  9/ 10 1026.3F
WILLOUBY STN VA  0400   39     360/  4/  5 1026.3R
S CRANEY ISL VA  0400           20/  3/  4 1025.7F
CAPE HENRY BUOY  0400      50                N/A     1/ 5
1ST LANDING BUOY 0400   39      20/  4/  6 1025.5S
CAPE CHARLES BUO 0400      47                N/A     1/11   2/11
64NM E OF VA BCH 0400   43 54  360/ 10/ 12 1024.8F   2/ 5   2/ 5
DUCK PIER NC     0400   42 46   10/  8/ 10 1024.4F
44100 DUCK FRF   0400      52                N/A     2/ 6
44056 DUCK FRF   0400      46                N/A     2/ 5
OREGON INLET NC  0400   42 48  350/  5/  8 1024.9F
HATTERAS NC      0400   45 50   20/  8/ 11 1025.0S
DIAMOND SHLS NC  0400   48                 1024.6F   3/ 4
CAPE LOOKOUT NC  0300   44      20/ 10/ 13 1024.5S
$$


USA.gov is the U.S. government's official web portal to all federal, state and local government web resources and services.